FW2189 Weather Reports


time (UTC)temp
C
wind
direction
speed
KPH
gust
KPH
rain 1hr
cm
rain 24hr
cm
rain mn
cm
humidity
%
barometer
mb
20260507062402 12 281 1.6 3.2 0.00 0.00 0.00 59 1020.2
20260507061558 12 48 0.0 4.8 0.00 0.00 0.00 59 1020.4
20260507060057 13 298 0.0 4.8 0.00 0.00 0.00 59 1020.1
20260507053902 13 299 0.0 3.2 0.00 0.00 0.00 60 1020.1
20260507053054 13 47 0.0 4.8 0.00 0.00 0.00 59 1020.1
20260507050902 13 45 0.0 3.2 0.00 0.00 0.00 59 1020.0
20260507045402 13 286 1.6 3.2 0.00 0.00 0.00 59 1020.1
20260507043903 13 285 0.0 4.8 0.00 0.00 0.00 59 1020.0
20260507042403 13 90 1.6 4.8 0.00 0.00 0.00 59 1019.9
20260507040903 13 313 0.0 6.4 0.00 0.00 0.00 59 1019.8
20260507040054 13 61 3.2 6.4 0.00 0.00 0.00 58 1019.6
20260507034555 14 52 1.6 4.8 0.00 0.00 0.00 58 1019.5
20260507033759 14 69 1.6 4.8 0.00 0.00 0.00 57 1019.3
20260507030901 15 99 1.6 6.4 0.00 0.00 0.00 57 1019.1
20260507025402 15 51 1.6 4.8 0.00 0.00 0.00 57 1018.9
20260507023900 15 114 0.0 1.6 0.00 0.00 0.00 56 1018.7
20260507022401 16 76 0.0 0.0 0.00 0.00 0.00 55 1018.7
20260507020858 16 145 0.0 0.0 0.00 0.00 0.00 55 1018.6
20260507015351 17 72 0.0 0.0 0.00 0.00 0.00 53 1018.7
20260507014550 17 56 0.0 0.0 0.00 0.00 0.00 54 1018.8
20260507012349 17 59 0.0 0.0 0.00 0.00 0.00 53 1018.8
20260507010842 17 71 0.0 0.0 0.00 0.00 0.00 53 1018.8
20260507005334 18 62 0.0 0.0 0.00 0.00 0.00 52 1018.7
20260507004529 18 58 0.0 0.0 0.00 0.00 0.00 51 1018.7
20260507002331 18 66 0.0 0.0 0.00 0.00 0.00 52 1018.7
20260507001538 18 237 0.0 0.0 0.00 0.00 0.00 52 1018.6
20260506235330 19 72 0.0 0.0 0.00 0.00 0.00 51 1018.6
20260506233831 20 65 0.0 0.0 0.00 0.00 0.00 51 1018.5
20260506232330 20 76 0.0 0.0 0.00 0.00 0.00 50 1018.6
20260506231531 20 54 0.0 0.0 0.00 0.00 0.00 49 1018.5
20260506225331 20 296 0.0 0.0 0.00 0.00 0.00 50 1018.6
20260506224524 19 66 0.0 6.4 0.00 0.00 0.00 50 1018.9
20260506222331 18 290 1.6 8.0 0.00 0.00 0.00 53 1018.9
20260506222222 18 54 3.2 6.4 0.00 0.00 0.00 52 1019.1
20260506215331 19 62 3.2 6.4 0.00 0.00 0.00 51 1019.0
20260506213831 19 138 1.6 9.7 0.00 0.00 0.00 50 1019.0
20260506212330 19 141 3.2 6.4 0.00 0.00 0.00 51 1018.9
20260506210831 18 223 0.0 0.0 0.00 0.00 0.00 51 1019.3
20260506210019 18 195 1.6 6.4 0.00 0.00 0.00 51 1019.3
20260506203831 18 152 1.6 6.4 0.00 0.00 0.00 53 1019.4
20260506202331 17 114 0.0 0.0 0.00 0.00 0.00 56 1019.3
20260506200831 17 63 0.0 0.0 0.00 0.00 0.00 57 1019.5
20260506195330 17 80 0.0 0.0 0.00 0.00 0.00 58 1019.5
20260506193831 16 63 0.0 0.0 0.00 0.00 0.00 58 1019.6
20260506192331 16 155 0.0 0.0 0.00 0.00 0.00 57 1019.8
20260506190831 16 234 0.0 0.0 0.00 0.00 0.00 58 1019.7
20260506185331 16 166 0.0 0.0 0.00 0.00 0.00 59 1019.6
20260506184528 16 151 0.0 0.0 0.00 0.00 0.00 59 1019.6
20260506182331 15 148 0.0 0.0 0.00 0.00 0.00 62 1019.5
20260506180831 -17 0.0 0.0 0.00 0.00 0.00 1019.7
20260506175330 14 233 0.0 0.0 0.00 0.00 0.00 63 1019.6
20260506173831 14 59 0.0 0.0 0.00 0.00 0.00 63 1019.6
20260506173029 14 151 0.0 0.0 0.00 0.00 0.00 63 1019.5
20260506170831 14 151 0.0 0.0 0.00 0.00 0.00 64 1019.4
20260506170032 13 149 0.0 0.0 0.00 0.00 0.00 64 1019.4
20260506163831 13 175 0.0 0.0 0.00 0.00 0.00 64 1019.6
20260506162331 13 193 0.0 0.0 0.00 0.00 0.00 64 1019.5
20260506160831 13 221 0.0 0.0 0.00 0.00 0.00 64 1019.4
20260506155331 13 113 0.0 0.0 0.00 0.00 0.00 64 1019.2
20260506153831 13 128 0.0 0.0 0.00 0.00 0.00 65 1018.8
20260506152332 13 51 0.0 0.0 0.00 0.00 0.00 66 1018.6
20260506151525 13 51 0.0 0.0 0.00 0.00 0.00 65 1019.2
20260506145331 13 51 0.0 0.0 0.00 0.00 0.00 65 1019.3
20260506144534 13 51 0.0 0.0 0.00 0.00 0.00 65 1019.2
20260506142331 13 51 0.0 0.0 0.00 0.00 0.00 65 1018.9
20260506140831 13 51 0.0 0.0 0.00 0.00 0.00 65 1018.4
20260506140024 13 51 0.0 0.0 0.00 0.00 0.00 65 1018.4
20260506133831 13 51 0.0 0.0 0.00 0.00 0.00 65 1018.3
20260506132331 13 51 0.0 0.0 0.00 0.00 0.00 66 1018.3
20260506130831 13 51 0.0 0.0 0.00 0.00 0.00 66 1018.0
20260506125331 13 51 0.0 0.0 0.00 0.00 0.00 65 1017.8
20260506123830 13 51 0.0 0.0 0.00 0.00 0.00 65 1017.7
20260506122331 13 51 0.0 0.0 0.00 0.00 0.00 65 1017.7
20260506120831 13 52 0.0 0.0 0.00 0.00 0.00 65 1017.8
20260506120026 13 51 0.0 0.0 0.00 0.00 0.00 64 1017.7
20260506113830 13 51 0.0 0.0 0.00 0.00 0.00 64 1017.5
20260506112327 13 52 0.0 0.0 0.00 0.00 0.00 64 1017.5
20260506110821 13 52 0.0 0.0 0.00 0.00 0.00 63 1017.3
20260506105318 13 51 0.0 0.0 0.00 0.00 0.00 65 1017.1
20260506103814 13 52 0.0 0.0 0.00 0.00 0.00 64 1016.9
20260506102314 13 52 0.0 0.0 0.00 0.00 0.00 64 1016.8
20260506100815 13 52 0.0 0.0 0.00 0.00 0.00 64 1016.6
20260506095312 13 52 0.0 0.0 0.00 0.00 0.00 63 1016.5
20260506093808 14 52 0.0 0.0 0.00 0.00 0.00 63 1016.3
20260506092308 14 52 0.0 0.0 0.00 0.00 0.00 63 1016.3
20260506090807 14 52 0.0 0.0 0.00 0.00 0.00 62 1016.2
20260506085956 15 52 0.0 0.0 0.00 0.00 0.00 62 1016.2
20260506083807 15 49 0.0 0.0 0.00 0.00 0.00 61 1016.1
20260506082305 15 49 0.0 0.0 0.00 0.00 0.00 62 1016.2
20260506080801 15 49 0.0 0.0 0.00 0.00 0.00 62 1016.2
20260506072959 15 49 0.0 0.0 0.00 0.00 0.00 62 1016.0
20260506071504 15 49 0.0 0.0 0.00 0.00 0.00 61 1015.9